Location: Ripley
(48.3812°N, 115.4473°W)
Time: 09:52:11
(UTC+00:00)

CAS-6 - Pass Details

Date: 02 July 2022
Orbit: 613 x 634 km, 97.9° (Epoch: 14 August)

Event Time Altitude Azimuth Distance (km) Brightness Sun altitude
Exits shadow 07:22:23 - 242° (WSW) 2,103 ? -18.4°
Reaches altitude 10° 07:22:57 10° 248° (WSW) 2,002 ? -18.4°
Maximum altitude 07:24:43 12° 272° (W) 1,858 ? -18.4°
Drops below altitude 10° 07:26:29 10° 297° (WNW) 2,003 ? -18.5°
Sets 07:30:02 0° 328° (NNW) 2,912 ? -18.5°
